Location: Sungai Bunut
(2.6333°N, 113.7333°E)
Time: 18:08:20
(UTC+00:00)

Transit 4A - Pass Details

Date: 10 December 2023
Orbit: 869 x 974 km, 66.8° (Epoch: 20 February)

Event Time Altitude Azimuth Distance (km) Brightness Sun altitude
Rises 09:53:39 0° 202° (SSW) 3,628 11.7 4.5°
Reaches altitude 10° 09:56:11 10° 203° (SSW) 2,692 11.1 3.9°
Maximum altitude 10:02:30 81° 289° (WNW) 984 8.3 2.5°
Drops below altitude 10° 10:08:51 10° 16° (NNE) 2,709 10.0 1.0°
Sets 10:11:25 0° 18° (NNE) 3,652 10.6 0.4°
